Content
SEND FEEDBACK

Daily
Averages
Monthly
Summary
United States of America

MERIZO, GUAM


Home > North America > United States > Guam
Elevation: 10 feet     Latitude: 13 14N     Longitude: 144 39E

WEATHER
 
SELECT A DAY
Number of Records: 351,620;   Date Range: 1/1/95 - 10/20/14
 
SHARE

PRINT THIS DATA

[ ← Previous Day ]
WEATHER ALMANAC - MAY 10, 2013
[ Next Day → ]
[ °C ]   °F
Weather ElementAverageHighLow
Temperature81.7 °F84.2 °F (10:24 am)77 °F (12:07 am)
Dewpoint75.4 °F77 °F (12:07 am)74.5 °F (4:55 am)
Humidity81.5 %100 % (12:07 am)74 % (10:25 am)
Barometer29.79 in29.85 in (12:07 am)29.74 in (4:08 pm)
Wind Speed8.9 mph11.5 mph (12:55 am)
Weather ElementAverage
Visibility10 mi
Wind DirectionENE (63.7 °)

Weather ElementTotal
Precipitation---
Cooling Degree Days15.6 (Base 65)
Growing Degree Days30.6 (Base 50)
Averaged from 75 records on May 10, 2013
WEATHER CONDITIONS BREAKOUT
WIND DIRECTION BREAKOUT
WEATHER BY HOUR - MAY 10, 2013
[ °C ]   °F
Local TimeTemperatureDewpointHumidityBarometerVisibilityWind DirectionWind SpeedGust SpeedPrecipitationEventsConditions
12:07 AM77.0 °F77.0 °F100 %29.85 in10.0 miNE (40°)5.8 mphOvercast
12:55 AM78.8 °F76.8 °F94 %29.82 in10.0 miNE (50°)11.5 mph0.00 inMostly Cloudy
1:55 AM78.1 °F75.6 °F92 %29.81 in10.0 miNE (40°)6.9 mphClear
2:55 AM78.4 °F75.0 °F89 %29.79 in10.0 miNE (40°)10.4 mphPartly Cloudy
3:55 AM78.3 °F74.8 °F89 %29.79 in10.0 miNE (50°)9.2 mphClear
4:55 AM77.9 °F74.5 °F89 %29.79 in10.0 miENE (60°)9.2 mphClear
5:55 AM77.9 °F74.8 °F90 %29.81 in10.0 miENE (60°)8.1 mphClear
6:55 AM79.0 °F75.6 °F89 %29.81 in10.0 miEast (80°)8.1 mphPartly Cloudy
7:55 AM80.2 °F75.6 °F86 %29.83 in10.0 miEast (80°)9.2 mphPartly Cloudy
8:30 AM80.6 °F75.2 °F84 %29.83 in10.0 miEast (80°)8.1 mphMostly Cloudy
8:35 AM80.6 °F75.2 °F84 %29.83 in10.0 miEast (90°)8.1 mphScattered Clouds
8:55 AM81.5 °F76.3 °F84 %29.83 in10.0 miENE (70°)8.1 mphScattered Clouds
9:55 AM82.2 °F76.3 °F82 %29.83 in10.0 miEast (90°)10.4 mphMostly Cloudy
10:21 AM82.4 °F75.2 °F79 %29.82 in10.0 miENE (70°)9.2 mphMostly Cloudy
10:24 AM84.2 °F77.0 °F79 %29.82 in10.0 miENE (70°)9.2 mphScattered Clouds
10:25 AM84.2 °F75.2 °F74 %29.82 in10.0 miENE (60°)9.2 mphMostly Cloudy
10:29 AM84.2 °F75.2 °F74 %29.82 in10.0 miENE (60°)9.2 mphMostly Cloudy
10:32 AM84.2 °F75.2 °F74 %29.82 in10.0 miENE (60°)9.2 mphMostly Cloudy
10:34 AM82.4 °F75.2 °F79 %29.82 in10.0 miENE (60°)9.2 mphMostly Cloudy
10:37 AM82.4 °F75.2 °F79 %29.82 in10.0 miENE (60°)8.1 mphMostly Cloudy
10:38 AM82.4 °F75.2 °F79 %29.82 in10.0 miENE (70°)9.2 mphMostly Cloudy
10:39 AM82.4 °F75.2 °F79 %29.82 in10.0 miENE (70°)10.4 mphMostly Cloudy
10:50 AM84.2 °F75.2 °F74 %29.82 in10.0 miENE (60°)9.2 mphMostly Cloudy
10:55 AM83.5 °F75.6 °F77 %29.82 in10.0 miNE (50°)10.4 mphScattered Clouds
10:58 AM84.2 °F75.2 °F74 %29.82 in10.0 miENE (60°)9.2 mphMostly Cloudy
11:01 AM84.2 °F77.0 °F79 %29.82 in10.0 miENE (60°)9.2 mphMostly Cloudy
11:29 AM84.2 °F77.0 °F79 %29.81 in10.0 miNNE (30°)11.5 mphMostly Cloudy
11:33 AM84.2 °F77.0 °F79 %29.81 in10.0 miNE (40°)11.5 mphMostly Cloudy
11:48 AM84.2 °F75.2 °F74 %29.81 in10.0 miNNE (30°)11.5 mphMostly Cloudy
11:55 AM84.0 °F75.4 °F75 %29.81 in10.0 miNE (40°)11.5 mphMostly Cloudy
12:55 PM84.2 °F76.1 °F77 %29.79 in10.0 miNE (40°)11.5 mphMostly Cloudy
1:02 PM84.2 °F75.2 °F74 %29.78 in10.0 miNE (40°)11.5 mphMostly Cloudy
1:14 PM84.2 °F77.0 °F79 %29.78 in10.0 miNE (50°)10.4 mphMostly Cloudy
1:55 PM84.0 °F75.2 °F75 %29.77 in10.0 miENE (70°)9.2 mphMostly Cloudy
2:55 PM83.5 °F75.6 °F77 %29.76 in10.0 miENE (60°)9.2 mphMostly Cloudy
2:56 PM84.2 °F75.2 °F74 %29.76 in10.0 miENE (60°)9.2 mphScattered Clouds
3:03 PM84.2 °F75.2 °F74 %29.76 in10.0 miENE (60°)9.2 mphMostly Cloudy
3:05 PM84.2 °F75.2 °F74 %29.76 in10.0 miENE (60°)8.1 mphScattered Clouds
3:06 PM84.2 °F75.2 °F74 %29.76 in10.0 miENE (60°)8.1 mphMostly Cloudy
3:12 PM84.2 °F75.2 °F74 %29.76 in10.0 miENE (60°)8.1 mphScattered Clouds
3:18 PM84.2 °F75.2 °F74 %29.75 in10.0 miENE (70°)9.2 mphMostly Cloudy
3:22 PM82.4 °F75.2 °F79 %29.75 in10.0 miENE (70°)9.2 mphScattered Clouds
3:35 PM84.2 °F75.2 °F74 %29.75 in10.0 miENE (60°)9.2 mphMostly Cloudy
3:49 PM82.4 °F75.2 °F79 %29.75 in10.0 miENE (60°)9.2 mphScattered Clouds
3:50 PM82.4 °F75.2 °F79 %29.75 in10.0 miENE (70°)9.2 mphMostly Cloudy
3:55 PM82.9 °F75.2 °F77 %29.75 in10.0 miENE (70°)9.2 mphMostly Cloudy
4:03 PM82.4 °F75.2 °F79 %29.75 in10.0 miEast (80°)9.2 mphScattered Clouds
4:08 PM82.4 °F75.2 °F79 %29.74 in10.0 miENE (70°)9.2 mphMostly Cloudy
4:27 PM82.4 °F75.2 °F79 %29.75 in10.0 miNE (50°)9.2 mphMostly Cloudy
4:29 PM82.4 °F75.2 °F79 %29.75 in10.0 miENE (70°)8.1 mphMostly Cloudy
4:31 PM82.4 °F75.2 °F79 %29.75 in10.0 miENE (60°)8.1 mphMostly Cloudy
4:55 PM82.6 °F75.9 °F80 %29.75 in10.0 miENE (70°)9.2 mphMostly Cloudy
4:57 PM82.4 °F77.0 °F84 %29.75 in10.0 miEast (80°)8.1 mphMostly Cloudy
5:37 PM82.4 °F75.2 °F79 %29.75 in10.0 miENE (60°)9.2 mphScattered Clouds
5:55 PM81.5 °F75.0 °F81 %29.75 in10.0 miENE (60°)8.1 mphPartly Cloudy
6:31 PM80.6 °F75.2 °F84 %29.77 in10.0 miENE (60°)6.9 mphMostly Cloudy
6:34 PM80.6 °F75.2 °F84 %29.77 in10.0 miENE (60°)6.9 mphScattered Clouds
6:46 PM80.6 °F75.2 °F84 %29.77 in10.0 miENE (70°)6.9 mphMostly Cloudy
6:51 PM80.6 °F75.2 °F84 %29.77 in10.0 miENE (70°)8.1 mphScattered Clouds
6:55 PM79.9 °F75.4 °F86 %29.77 in10.0 miEast (80°)8.1 mphScattered Clouds
6:57 PM80.6 °F75.2 °F84 %29.77 in10.0 miEast (80°)8.1 mphMostly Cloudy
6:59 PM80.6 °F75.2 °F84 %29.77 in10.0 miEast (80°)8.1 mphMostly Cloudy
7:02 PM80.6 °F75.2 °F84 %29.77 in10.0 miEast (90°)8.1 mphScattered Clouds
7:55 PM79.0 °F74.7 °F87 %29.79 in10.0 miENE (60°)6.9 mphClear
8:55 PM78.4 °F74.8 °F89 %29.79 in10.0 miENE (70°)5.8 mphClear
9:55 PM79.3 °F75.2 °F87 %29.81 in10.0 miEast (80°)6.9 mphPartly Cloudy
10:03 PM78.8 °F75.2 °F89 %29.80 in10.0 miEast (90°)6.9 mphMostly Cloudy
10:05 PM78.8 °F75.2 °F89 %29.80 in10.0 miEast (90°)8.1 mphMostly Cloudy
10:39 PM80.6 °F75.2 °F84 %29.81 in10.0 miEast (80°)6.9 mphMostly Cloudy
10:43 PM80.6 °F75.2 °F84 %29.81 in10.0 miEast (80°)8.1 mphMostly Cloudy
10:55 PM79.9 °F75.6 °F87 %29.81 in10.0 miENE (60°)10.4 mphMostly Cloudy
10:56 PM80.6 °F75.2 °F84 %29.81 in10.0 miENE (60°)11.5 mphMostly Cloudy
11:06 PM78.8 °F75.2 °F89 %29.81 in10.0 miENE (60°)9.2 mphMostly Cloudy
11:41 PM78.8 °F75.2 °F89 %29.80 in10.0 miENE (60°)10.4 mphMostly Cloudy
11:55 PM79.5 °F75.6 °F88 %29.80 in10.0 miENE (60°)10.4 mphOvercast
Hourly data recorded from PGUA, located miles away from Merizo, Guam







STORIES FROM OUR PARTNERS